Regional Weather Roundup
Issued by NWS Midland/Odessa, TX

Home | Current Version | Previous Version | Text Only | Print | Product List | Glossary On
Versions: 1 2 3 4 5 6 7 8 9 10 11 12 13 14 15 16 17 18 19 20 21 22 23 24 25 26 27 28 29 30 31 32 33 34 35 36 37 38 39 40 41 42 43 44 45 46 47 48 49 50
000
ASUS44 KMAF 181501
RWRMAF
MIDLAND AREA WEATHER ROUNDUP
NATIONAL WEATHER SERVICE MIDLAND TX
1000 AM CDT FRI AUG 18 2017

...IN SOUTHWEST TEXAS AND SOUTHEAST NEW MEXICO...

CITY           SKY/WX    TMP DP  RH WIND       PRES   REMARKS
ALPINE         CLOUDY    75  61  60 SW7       30.27R
ANDREWS        FAIR      79  66  64 S10       30.14R
ARTESIA        SUNNY     75  66  73 SE9       30.12S
BIG SPRING     PTSUNNY   77  70  78 S8        30.14R
CARLSBAD       SUNNY     76  68  76 SE7       30.10R
DRYDEN           N/A     79  71  76 E8        30.08R
FORT STOCKTON  CLOUDY    79  66  64 SE6       30.11R
GUAD PASS      NOT AVBL
HOBBS          SUNNY     77  64  65 S10       30.15R
MARFA          CLOUDY    69  64  84 MISG      30.26R
MIDLAND AIRPK  SUNNY     80  67  64 S7        30.13R
MIDLAND INTL   SUNNY     79  67  66 S14       30.12R
ODESSA         SUNNY     79  68  69 S12       30.13R
PECOS          CLOUDY    77  65  65 CALM      30.09S
PRESIDIO       FAIR      78  66  66 E3        30.13S
SEMINOLE       SUNNY     78  65  65 S8        30.15S
SNYDER         CLOUDY    78  69  73 SW5       30.13R
WINK           CLOUDY    78  67  68 SE9       30.08R
$$
...OTHER STATIONS IN TEXAS...

CITY           SKY/WX    TMP DP  RH WIND       PRES   REMARKS
ABILENE        CLOUDY    78  71  79 SW6       30.10R
AMARILLO       CLOUDY    65  63  93 SE15      30.17F
AUSTIN         MOSUNNY   86  74  67 SW10      30.07R
BROWNSVILLE    CLOUDY    87  78  74 S10       30.01R HX 100
CORPUS CHRISTI MOSUNNY   88  77  69 S13       30.02R HX 100
DALLAS FTW     CLOUDY    83  72  69 SW6       30.05R
DEL RIO        CLOUDY    81  73  76 E8        30.03R
EL PASO        MOSUNNY   77  61  57 S7        30.14R
HOUSTON INT    MOSUNNY   86  76  71 W9        30.06R
LUBBOCK        PTSUNNY   74  67  78 NE18      30.19R
SAN ANGELO     CLOUDY    77  70  79 SE5       30.09S
SAN ANTONIO    MOSUNNY   83  73  72 S10       30.07S
WACO           SUNNY     84  74  71 S13       30.06R
WICHITA FALLS  NOT AVBL
$$
...OTHER LOCATIONS IN NEW MEXICO...

CITY           SKY/WX    TMP DP  RH WIND       PRES   REMARKS
ALAMOGORDO     SUNNY     77  55  47 CALM      30.17S
ALBUQUERQUE    MOSUNNY   70  42  36 NW6       30.26R
CANNON AFB     MOSUNNY   72  70  93 E7        30.20R
CLOVIS         CLOUDY    70  66  87 SE7       30.21R
HOLLOMAN AFB   SUNNY     81  58  45 CALM      30.17S
ROSWELL        SUNNY     77  64  64 S9        30.13R
RUIDOSO        SUNNY     72  48  43 NW3       30.36R
SANTA FE       SUNNY     70  39  32 N13       30.32R
TRUTH OR CONSE SUNNY     78  43  28 VRB3      30.19R
TUCUMCARI      SUNNY     79  63  57 NE6       30.16R
$$



USA.gov is the U.S. government's official web portal to all federal, state and local government web resources and services.